[[{"header":{"parameterUnit":"m.s-1","parameterCategory":1,"la1":30.2991,"la2":30.254,"lo1":-89.0895,"lo2":-89.0444,"dy":0.0017,"dx":0.0017,"nx":28,"ny":28,"refTime":"2025-04-09T03:00:00:Z","depth":0,"parameterNumber":2,"parameterNumberName":"U-component_of_WINDS"},"data":[0,0,0,0,0,0,0,0,0,0,0,0,0,0,0,0,0,0,0,0,0,0,0,0,0,0,0,0,0,0,0,0,0,0,0,0,0,0,0,0,0,0,0,0,0,0,0,0,0,0,0,0,0,0,0,0,0,0,2.227,2.227,0,2.2275,2.2275,2.2275,2.2242,2.2241,2.224,2.224,2.2245,2.2246,2.2247,0,0,0,0,0,0,0,0,0,0,0,0,0,2.2233,2.2234,2.227,2.227,2.227,2.2275,2.2275,2.2275,2.2243,2.2241,2.224,2.2239,2.2245,2.2246,2.2247,0,0,0,0,0,0,0,0,0,0,0,0,0,2.2245,2.2234,2.227,2.2254,2.2253,2.2275,2.2275,2.2275,2.2243,2.2241,2.224,2.2239,2.2244,2.2246,2.2247,2.2285,0,0,2.2252,2.2253,0,0,0,0,0,0,0,0,2.2244,2.2246,2.2257,2.2255,2.2254,2.2257,2.2264,2.2278,2.2243,2.2247,2.224,2.2238,2.225,2.2251,2.2255,2.2285,2.2285,2.2252,2.2253,2.2254,2.2254,0,0,0,0,0,0,0,2.2244,2.2246,2.2272,2.2257,2.2255,2.2248,2.2248,2.2267,2.2256,2.2246,2.2244,2.2245,2.2249,2.2254,2.2255,2.2285,2.2252,2.2253,2.2254,2.2255,2.2349,2.235,0,0,0,0,0,0,2.2245,2.2246,2.2272,2.2272,2.2246,2.2249,2.225,2.2257,2.2256,2.2254,2.2246,2.2243,2.2252,2.2253,2.2255,2.23,2.2254,2.2255,2.2256,2.2347,2.2349,2.2351,0,0,0,0,0,0,2.2244,2.2247,2.2272,2.2258,2.2261,2.2252,2.226,2.2258,2.2263,2.2256,2.2254,2.2253,2.2251,2.2253,2.2278,2.23,2.2256,2.2257,2.2345,2.2348,2.235,2.239,0,0,0,0,0,0,2.2243,2.2247,2.2261,2.2259,2.2262,2.2294,2.2262,2.2259,2.2265,2.2262,2.2261,2.226,2.225,2.2276,2.228,2.2301,2.2258,2.2343,2.2346,2.2349,2.2387,2.2393,2.2399,0,0,0,0,0,2.2242,2.2271,2.2262,2.2265,2.2278,2.2295,2.2297,2.2285,2.2267,2.2281,2.2277,2.226,2.2297,2.2279,2.2283,2.2305,2.2342,2.2345,2.2349,2.2384,2.2392,2.2399,0,0,0,0,0,0,2.2276,2.2271,2.226,2.2289,2.2293,2.229,2.2307,2.2294,2.2302,2.2298,2.2283,2.2283,2.2312,2.2311,2.2291,2.2342,2.2316,2.2321,2.2342,2.2349,2.2356,2.2355,2.226,0,0,0,0,0,2.2287,2.2301,2.2296,2.2322,2.2325,2.2316,2.2323,2.2313,2.2316,2.2318,2.2315,2.2319,2.2332,2.2341,2.2352,2.2387,2.2387,2.2404,2.241,2.2415,2.242,2.244,2.2448,2.2362,2.2362,2.2362,0,0,2.2309,2.2308,2.2318,2.2329,2.2331,2.2347,2.2317,2.2334,2.2346,2.232,2.2344,2.2343,2.2347,2.2378,2.2391,2.2378,2.2443,2.242,2.2424,2.2425,2.2444,2.2452,2.246,2.2365,2.2364,2.2364,0,0,2.2359,2.2359,2.2382,2.2385,2.2388,2.2382,2.2388,2.2387,2.2386,2.241,2.2391,2.2405,2.2427,2.2431,2.2436,2.249,2.2475,2.2494,2.2526,2.2546,2.2553,2.2559,2.258,2.2587,2.2498,2.2498,2.2498,0,2.2386,2.2409,2.2396,2.2415,2.2421,2.2399,2.2423,2.2427,2.2434,2.2439,2.2424,2.2452,2.2453,2.2485,2.2499,2.2503,2.251,2.2493,2.2553,2.2559,2.2564,2.2584,2.2591,2.25,2.25,2.25,2.25,0,2.2444,2.246,2.2478,2.2486,2.2494,2.2516,2.2507,2.2517,2.2508,2.2504,2.253,2.253,2.2542,2.2549,2.2539,2.258,2.2572,2.2556,2.2529,2.2575,2.2593,2.26,2.2504,2.2503,2.2502,2.2502,0,0,2.2513,2.2515,2.2522,2.2526,2.253,2.2542,2.2564,2.2576,2.2585,2.2591,2.261,2.263,2.2615,2.2621,2.2612,2.2629,2.2674,2.2611,2.261,2.2623,2.2721,2.2734,2.2743,2.2664,2.2665,2.2667,2.2721,0,2.2562,2.2598,2.2588,2.2625,2.2641,2.2621,2.264,2.2645,2.2643,2.2656,2.2653,2.2668,2.2647,2.2651,2.2667,2.2665,2.2693,2.2661,2.2682,2.2683,2.2682,2.2752,2.2765,2.2817,2.2728,2.2729,2.273,0,2.2624,2.2633,2.2672,2.2675,2.2681,2.2698,2.2709,2.2722,2.2728,2.2725,2.2733,2.2721,2.2743,2.2717,2.2748,2.2726,2.2735,2.2735,2.2737,2.2738,2.2709,2.2756,2.2833,2.2841,2.2741,2.274,2.2739,0,2.2672,2.2694,2.2721,2.2725,2.2728,2.2741,2.2743,2.2748,2.2756,2.2767,2.2772,2.2785,2.2792,2.2802,2.2795,2.2776,2.2828,2.2801,2.2827,2.2827,2.2839,2.2838,2.2918,2.2843,2.2843,2.2843,2.2843,0,2.2728,2.2753,2.2743,2.2759,2.2787,2.2776,2.2804,2.2804,2.2808,2.2825,2.2809,2.2825,2.2813,2.2829,2.2823,2.2851,2.2854,2.2853,2.2851,2.2855,2.2855,2.286,2.2856,2.2845,2.2845,2.2844,2.2844,0,2.2786,2.278,2.2808,2.281,2.2811,2.2832,2.2833,2.2849,2.2846,2.2868,2.2872,2.2868,2.2886,2.2879,2.2898,2.2894,2.293,2.2923,2.2928,2.2927,2.2954,2.2952,2.304,2.3052,2.2969,2.297,2.297,0,2.2822,2.2841,2.2846,2.2856,2.2859,2.2876,2.2885,2.2876,2.2886,2.2895,2.291,2.2927,2.2939,2.2969,2.2968,2.2982,2.2976,2.3007,2.2978,2.2982,2.2978,2.2977,2.298,2.3012,2.3013,2.3014,2.3014,0,2.2888,2.2885,2.2899,2.2912,2.2924,2.2934,2.2943,2.2952,2.2943,2.2956,2.2975,2.2985,2.3005,2.3022,2.3035,2.3038,2.3026,2.3024,2.3031,2.3034,2.3037,2.3037,2.2944,2.3021,2.3021,2.302,2.302,2.3019,2.2937,2.2954,2.296,2.2976,2.2982,2.2991,2.3007,2.3007,2.3022,2.3037,2.3031,2.3053,2.306,2.3077,2.3082,2.31,2.3088,2.3098,2.31,2.3103,2.3107,2.3034,2.3102,2.3102,2.3102,2.3101,2.3101,0,2.3003,2.3006,2.3022,2.3035,2.3049,2.3036,2.3046,2.3058,2.3077,2.3085,2.3098,2.3121,2.3138,2.3139,2.3155,2.3169,2.3164,2.3173,2.3172,2.3174,2.3116,2.3109,2.3178,2.3178,2.3178,2.3178,2.3178,2.3178,2.3038,2.3066,2.3064,2.3096,2.3099,2.312,2.3127,2.3136,2.3143,2.3168,2.3183,2.3183,2.3189,2.3206,2.3222,2.3221,2.3229,2.3241,2.3239,2.3185,2.3178,2.317,2.3163,2.3242,2.3243,2.3295,2.3296,2.3296]},{"header":{"parameterUnit":"m.s-1","parameterCategory":1,"la1":30.2991,"la2":30.254,"lo1":-89.0895,"lo2":-89.0444,"dy":0.0017,"dx":0.0017,"nx":28,"ny":28,"refTime":"2025-04-09T03:00:00:Z","depth":0,"parameterNumber":3,"parameterNumberName":"V-component_of_WINDS"},"data":[0,0,0,0,0,0,0,0,0,0,0,0,0,0,0,0,0,0,0,0,0,0,0,0,0,0,0,0,0,0,0,0,0,0,0,0,0,0,0,0,0,0,0,0,0,0,0,0,0,0,0,0,0,0,0,0,0,0,-1.6731,-1.6732,0,-1.6834,-1.6836,-1.6837,-1.6846,-1.6845,-1.6844,-1.6843,-1.6949,-1.6953,-1.6956,0,0,0,0,0,0,0,0,0,0,0,0,0,-1.6543,-1.6547,-1.6731,-1.6732,-1.6734,-1.6834,-1.6836,-1.6837,-1.6846,-1.6845,-1.6843,-1.6842,-1.6948,-1.6952,-1.6957,0,0,0,0,0,0,0,0,0,0,0,0,0,-1.6634,-1.6548,-1.6731,-1.675,-1.6753,-1.6834,-1.6836,-1.6838,-1.6846,-1.6845,-1.6843,-1.6842,-1.6946,-1.6952,-1.6957,-1.7026,0,0,-1.6975,-1.6978,0,0,0,0,0,0,0,0,-1.6628,-1.664,-1.6746,-1.6749,-1.6752,-1.6826,-1.6809,-1.6901,-1.6847,-1.6811,-1.6843,-1.6841,-1.6909,-1.6918,-1.6941,-1.7031,-1.7036,-1.6976,-1.6979,-1.6982,-1.6983,0,0,0,0,0,0,0,-1.6622,-1.6636,-1.6772,-1.6748,-1.6751,-1.6754,-1.6765,-1.6826,-1.6868,-1.6814,-1.6815,-1.6827,-1.6911,-1.6935,-1.6944,-1.7037,-1.6976,-1.6981,-1.6984,-1.6986,-1.7192,-1.7194,0,0,0,0,0,0,-1.6612,-1.6631,-1.6769,-1.6775,-1.6685,-1.6759,-1.6771,-1.6804,-1.6867,-1.6876,-1.6828,-1.6827,-1.6926,-1.6937,-1.6947,-1.7034,-1.6982,-1.6987,-1.699,-1.719,-1.7193,-1.7195,0,0,0,0,0,0,-1.6608,-1.6624,-1.6765,-1.6703,-1.6721,-1.6764,-1.68,-1.6807,-1.6831,-1.6878,-1.6886,-1.6846,-1.6925,-1.6939,-1.7007,-1.7038,-1.699,-1.6995,-1.7188,-1.7191,-1.7194,-1.7207,0,0,0,0,0,0,-1.6603,-1.6623,-1.6649,-1.6704,-1.6725,-1.6822,-1.6802,-1.681,-1.6841,-1.6841,-1.6897,-1.6904,-1.6925,-1.6999,-1.7013,-1.7045,-1.6999,-1.7185,-1.7189,-1.7193,-1.7204,-1.721,-1.7215,0,0,0,0,0,-1.6596,-1.6648,-1.665,-1.6667,-1.6758,-1.6824,-1.6836,-1.6858,-1.6844,-1.6871,-1.6901,-1.6903,-1.7032,-1.7005,-1.7022,-1.7056,-1.7183,-1.7188,-1.7192,-1.7201,-1.7209,-1.7215,0,0,0,0,0,0,-1.6595,-1.6655,-1.6658,-1.673,-1.6772,-1.6825,-1.686,-1.6865,-1.6912,-1.691,-1.6936,-1.6949,-1.7016,-1.7043,-1.7012,-1.7127,-1.7106,-1.7114,-1.7107,-1.7115,-1.712,-1.7113,-1.7004,0,0,0,0,0,-1.6603,-1.6651,-1.6701,-1.6759,-1.678,-1.6817,-1.6846,-1.686,-1.6905,-1.6922,-1.6958,-1.7001,-1.7052,-1.7085,-1.7133,-1.7207,-1.7221,-1.7239,-1.7245,-1.7249,-1.7256,-1.7299,-1.7309,-1.7209,-1.7209,-1.7209,0,0,-1.662,-1.6659,-1.6688,-1.676,-1.6794,-1.6845,-1.6831,-1.6884,-1.6922,-1.693,-1.6997,-1.7025,-1.7075,-1.7147,-1.718,-1.7171,-1.7286,-1.7255,-1.7258,-1.7263,-1.7305,-1.7314,-1.7323,-1.7212,-1.7212,-1.7211,0,0,-1.6678,-1.6711,-1.6764,-1.6799,-1.6851,-1.6875,-1.6888,-1.6941,-1.696,-1.7028,-1.7036,-1.7081,-1.7167,-1.7204,-1.7233,-1.7307,-1.7311,-1.7322,-1.7351,-1.7393,-1.7401,-1.7408,-1.7436,-1.7446,-1.7328,-1.7328,-1.7328,0,-1.6692,-1.6768,-1.6791,-1.6845,-1.6877,-1.6887,-1.6942,-1.6975,-1.704,-1.7063,-1.7051,-1.7161,-1.7196,-1.7278,-1.7296,-1.7319,-1.7335,-1.7316,-1.7398,-1.7405,-1.7412,-1.744,-1.745,-1.733,-1.7329,-1.7329,-1.7329,0,-1.6785,-1.6837,-1.6874,-1.6937,-1.6974,-1.7028,-1.706,-1.7094,-1.7105,-1.7131,-1.7201,-1.7243,-1.7302,-1.7322,-1.7333,-1.7406,-1.7399,-1.7392,-1.7372,-1.7423,-1.7449,-1.7459,-1.7331,-1.7331,-1.733,-1.733,0,0,-1.6844,-1.6921,-1.6934,-1.6964,-1.7023,-1.7064,-1.7119,-1.7177,-1.7207,-1.7252,-1.73,-1.7373,-1.7369,-1.7403,-1.7418,-1.7455,-1.7513,-1.7444,-1.7446,-1.7457,-1.7598,-1.7604,-1.7615,-1.7515,-1.7517,-1.7519,-1.7595,0,-1.6909,-1.7007,-1.703,-1.7115,-1.7165,-1.7176,-1.7224,-1.7266,-1.7292,-1.7339,-1.7367,-1.742,-1.7408,-1.7429,-1.7466,-1.7498,-1.7542,-1.7492,-1.7562,-1.7564,-1.755,-1.7628,-1.7634,-1.7703,-1.7605,-1.7606,-1.7608,0,-1.6998,-1.7046,-1.7135,-1.719,-1.7212,-1.7255,-1.7311,-1.7355,-1.7403,-1.742,-1.7458,-1.7471,-1.753,-1.7506,-1.7589,-1.7555,-1.7585,-1.7605,-1.7608,-1.7617,-1.7589,-1.764,-1.7725,-1.7736,-1.7623,-1.7622,-1.7621,0,-1.7034,-1.7121,-1.7187,-1.7212,-1.7276,-1.7307,-1.7335,-1.7382,-1.7416,-1.7465,-1.7488,-1.7543,-1.7574,-1.7617,-1.7644,-1.7624,-1.7726,-1.7704,-1.7742,-1.7742,-1.7764,-1.7762,-1.7857,-1.778,-1.778,-1.778,-1.778,0,-1.7105,-1.716,-1.7204,-1.7244,-1.7307,-1.7334,-1.7395,-1.7424,-1.7466,-1.7513,-1.7526,-1.757,-1.7603,-1.7652,-1.7674,-1.774,-1.7753,-1.7769,-1.7775,-1.7769,-1.7767,-1.779,-1.7786,-1.7783,-1.7782,-1.7782,-1.7781,0,-1.7156,-1.7188,-1.726,-1.7316,-1.7332,-1.7376,-1.7424,-1.7464,-1.7491,-1.7551,-1.7566,-1.7608,-1.7667,-1.7698,-1.7771,-1.7786,-1.7861,-1.7863,-1.7845,-1.7848,-1.7885,-1.7882,-1.7998,-1.8016,-1.7926,-1.7927,-1.7928,0,-1.72,-1.7243,-1.7304,-1.7337,-1.7366,-1.7418,-1.7453,-1.7481,-1.7518,-1.7578,-1.7611,-1.7671,-1.772,-1.7813,-1.7851,-1.7907,-1.7912,-1.7949,-1.792,-1.7914,-1.7915,-1.7912,-1.7918,-1.7954,-1.7955,-1.7955,-1.7956,0,-1.7275,-1.729,-1.7339,-1.7396,-1.7438,-1.7483,-1.7528,-1.7554,-1.759,-1.7631,-1.7691,-1.7729,-1.7805,-1.7864,-1.7924,-1.7955,-1.7962,-1.7964,-1.7977,-1.7972,-1.7961,-1.7969,-1.786,-1.7962,-1.7961,-1.7961,-1.796,-1.796,-1.7326,-1.7365,-1.7415,-1.7471,-1.7508,-1.755,-1.7592,-1.7624,-1.7675,-1.7739,-1.7752,-1.7817,-1.7866,-1.7948,-1.798,-1.8031,-1.8024,-1.8041,-1.8046,-1.805,-1.8053,-1.7951,-1.8042,-1.8042,-1.8042,-1.8042,-1.8042,0,-1.7403,-1.7436,-1.7487,-1.7551,-1.7595,-1.7598,-1.7649,-1.7686,-1.7743,-1.7788,-1.7837,-1.7907,-1.7966,-1.8008,-1.8068,-1.8101,-1.8107,-1.8116,-1.8115,-1.8122,-1.8055,-1.8039,-1.8111,-1.8111,-1.8111,-1.8111,-1.8111,-1.8111,-1.7449,-1.7517,-1.7537,-1.7624,-1.7656,-1.772,-1.7749,-1.7788,-1.7825,-1.7903,-1.7952,-1.7979,-1.8025,-1.8088,-1.8143,-1.8154,-1.8176,-1.8186,-1.8197,-1.8134,-1.8127,-1.812,-1.8105,-1.819,-1.819,-1.8261,-1.8261,-1.8262]}]]